Content
SEND FEEDBACK

Daily
Averages
Monthly
Summary
United States of America

AGANA, GUAM


Home > North America > United States > Guam
Elevation: 246 feet     Latitude: 13 29N     Longitude: 144 48E

WEATHER
 
SELECT A DAY
Number of Records: 208,807;   Date Range: 1/1/95 - 7/7/14
 
SHARE

PRINT THIS DATA

[ ← Previous Day ]
WEATHER ALMANAC - NOVEMBER 12, 2013
[ Next Day → ]
[ °C ]   °F
Weather ElementAverageHighLow
Temperature82 °F88 °F (1:54 pm)77 °F (4:54 am)
Dewpoint73.6 °F75 °F (7:54 am)73 °F (5:54 am)
Humidity76.3 %90 % (4:54 am)61 % (1:54 pm)
Barometer29.82 in29.86 in (8:54 am)29.78 in (2:54 pm)
Wind Speed7.6 mph12.7 mph (9:54 am)
Wind Gust16.1 mph (12:54 pm)
Weather ElementAverage
Visibility10 mi
Wind DirectionENE (68.6 °)

Weather ElementTotal
Precipitation---
Cooling Degree Days17.5 (Base 65)
Growing Degree Days32.5 (Base 50)
Averaged from 22 records on November 12, 2013
WEATHER CONDITIONS BREAKOUT
WIND DIRECTION BREAKOUT
WEATHER BY HOUR - NOVEMBER 12, 2013
[ °C ]   °F
Local TimeTemperatureDewpointHumidityBarometerVisibilityWind DirectionWind SpeedGust SpeedPrecipitationEventsConditions
1:54 AM78.1 °F73.9 °F87 %29.81 in10.0 miENE (60°)5.8 mphClear
2:54 AM78.1 °F73.9 °F87 %29.80 in10.0 miENE (60°)5.8 mphClear
3:54 AM78.1 °F73.9 °F87 %29.79 in10.0 miENE (60°)3.5 mphClear
4:54 AM77.0 °F73.9 °F90 %29.79 in10.0 miNE (50°)4.6 mphClear
5:54 AM77.0 °F73.0 °F88 %29.81 in10.0 miNNE (30°)4.6 mphClear
6:54 AM77.0 °F73.9 °F90 %29.84 in10.0 miCalmClear
7:54 AM82.0 °F75.0 °F79 %29.85 in10.0 miENE (70°)4.6 mphClear
8:54 AM84.0 °F73.9 °F72 %29.86 in10.0 miEast (100°)8.1 mphPartly Cloudy
9:54 AM86.0 °F73.9 °F67 %29.86 in10.0 miEast (90°)12.7 mphScattered Clouds
10:54 AM86.0 °F73.0 °F65 %29.84 in10.0 miEast (90°)9.2 mphPartly Cloudy
11:54 AM87.1 °F73.0 °F63 %29.82 in10.0 miEast (90°)6.9 mphScattered Clouds
12:54 PM87.1 °F73.0 °F63 %29.80 in10.0 miEast (100°)11.5 mph16.1 mphScattered Clouds
1:54 PM88.0 °F73.0 °F61 %29.79 in10.0 miEast (90°)11.5 mphPartly Cloudy
2:54 PM87.1 °F73.0 °F63 %29.78 in10.0 miEast (80°)10.4 mphPartly Cloudy
3:54 PM86.0 °F73.0 °F65 %29.79 in10.0 miNE (50°)12.7 mphPartly Cloudy
5:54 PM82.0 °F73.9 °F76 %29.81 in10.0 miEast (90°)6.9 mphClear
6:54 PM81.0 °F73.0 °F77 %29.83 in10.0 miENE (70°)8.1 mphPartly Cloudy
7:54 PM80.1 °F73.9 °F81 %29.84 in10.0 miENE (60°)6.9 mphClear
8:54 PM81.0 °F73.9 °F79 %29.84 in10.0 miENE (60°)8.1 mphPartly Cloudy
9:54 PM81.0 °F73.9 °F79 %29.84 in10.0 miENE (70°)9.2 mphClear
10:54 PM81.0 °F73.9 °F79 %29.83 in10.0 miENE (70°)8.1 mphClear
11:54 PM80.1 °F73.9 °F81 %29.82 in10.0 miENE (70°)6.9 mphPartly Cloudy
Hourly data recorded from PGUM, located miles away from Agana, Guam







STORIES FROM OUR PARTNERS